Fort Myers, FL

4:20 AM EST on December 11, 2016 (GMT -0500)
Page

Weather History for KFMY - August, 2014

Change the Weather History Date:

Tuesday, August 26, 2014

  Actual Average Record
Temperature  
Mean Temperature 84 °F 83 °F  
Max Temperature 93 °F 92 °F 97 °F (1941)
Min Temperature 74 °F 75 °F 68 °F (1917)
Degree Days  
Heating Degree Days 0 0  
Month to date heating degree days 0 0  
Since 1 June heating degree days 0 0  
Since 1 July heating degree days 0 0  
Cooling Degree Days 19 18  
Month to date cooling degree days 512 468  
Year to date cooling degree days 2813 2623  
Since 1 June cooling degree days 1622 1557  
Growing Degree Days 32 (Base 50)    
Moisture  
Dew Point 71 °F    
Average Humidity 71    
Maximum Humidity 100    
Minimum Humidity 41    
Precipitation  
Precipitation 0.00 in 0.34 in 2.37 in (1968)
Month to date precipitation 6.13 8.48  
Year to date precipitation 28.59 39.41  
Sea Level Pressure  
Sea Level Pressure 29.86 in    
Wind  
Wind Speed 11 mph (ENE)    
Max Wind Speed 20 mph    
Max Gust Speed 25 mph    
Visibility 10 miles    
Events      
T = Trace of Precipitation, MM = Missing Value Source: NWS Daily Summary

Daily Weather History Graph

Daily Weather History Graph

Search for Another Location

Airport or City:

Trip Planner

Search our weather history database for the weather conditions in past years. The results will help you decide how hot, cold, wet, or windy it might be!

Date:

Astronomy

Aug. 26, 2014 Rise Set
Actual Time 7:04 AM EDT 7:53 PM EDT
Civil Twilight 6:40 AM EDT 8:17 PM EDT
Nautical Twilight 6:12 AM EDT 8:45 PM EDT
Astronomical Twilight 5:44 AM EDT 9:13 PM EDT
Moon 7:54 AM EDT (8/26) 8:26 PM EDT (8/26)
Length of Visible Light 13h 36m
Length of Day
12h 49m
New Moon, 1% of the Moon is Illuminated
Aug 26
New Moon
Sep 2
First Quarter
Sep 8
Full
Sep 15
Last Quarter
Sep 24
New

Hourly Weather History & Observations

Time (EDT) Temp. Heat Index Dew Point Humidity Pressure Visibility Wind Dir Wind Speed Gust Speed Precip Events Conditions
12:53 AM 78.1 °F - 73.0 °F 84% 29.84 in 10.0 mi NE 9.2 mph - N/A   Clear
1:53 AM 75.9 °F - 73.0 °F 91% 29.84 in 10.0 mi NNE 8.1 mph - N/A   Clear
2:53 AM 75.0 °F - 73.0 °F 94% 29.83 in 10.0 mi NE 8.1 mph - N/A   Clear
3:53 AM 75.0 °F - 73.0 °F 94% 29.82 in 10.0 mi NNE 8.1 mph - N/A   Partly Cloudy
5:53 AM 73.9 °F - 73.0 °F 97% 29.83 in 10.0 mi NNE 9.2 mph - N/A   Clear
6:53 AM 73.9 °F - 73.0 °F 97% 29.85 in 10.0 mi NNE 10.4 mph - N/A   Clear
8:53 AM 75.9 °F - 73.9 °F 94% 29.86 in 10.0 mi NE 12.7 mph - N/A   Clear
9:53 AM 77.0 °F - 73.9 °F 90% 29.87 in 10.0 mi ENE 10.4 mph - N/A   Clear
11:53 AM 89.1 °F 96.0 °F 72.0 °F 57% 29.88 in 10.0 mi ENE 13.8 mph - N/A   Mostly Cloudy
12:53 PM 90.0 °F 96.9 °F 72.0 °F 55% 29.88 in 10.0 mi East 12.7 mph - N/A   Partly Cloudy
1:53 PM 91.0 °F 97.6 °F 71.1 °F 52% 29.87 in 10.0 mi East 17.3 mph 20.7 mph N/A   Scattered Clouds
2:53 PM 91.9 °F 97.4 °F 70.0 °F 48% 29.87 in 10.0 mi East 15.0 mph 23.0 mph N/A   Partly Cloudy
3:53 PM 91.0 °F 94.3 °F 66.9 °F 45% 29.85 in 10.0 mi ENE 9.2 mph 21.9 mph N/A   Scattered Clouds
5:53 PM 91.0 °F 96.6 °F 70.0 °F 50% 29.85 in 10.0 mi East 15.0 mph - N/A   Clear
6:53 PM 89.1 °F 93.7 °F 69.1 °F 52% 29.85 in 10.0 mi ENE 12.7 mph 18.4 mph N/A   Partly Cloudy
7:53 PM 86.0 °F 88.2 °F 66.0 °F 51% 29.87 in 10.0 mi ENE 10.4 mph - N/A   Clear
8:53 PM 82.9 °F 85.0 °F 66.0 °F 56% 29.90 in 10.0 mi ENE 9.2 mph - N/A   Clear
10:53 PM 80.1 °F 82.9 °F 69.1 °F 69% 29.93 in 10.0 mi ENE 12.7 mph - N/A   Clear
11:53 PM 78.1 °F - 70.0 °F 76% 29.93 in 10.0 mi ENE 12.7 mph - N/A   Clear